User: anonymous   Login
Location: Stonelick Lake State Park
(39.2170°N, 84.0850°W)
Time: 00:01:43
(UTC-05:00)
Language:

Abrixas rocket - Orbit

View from above orbital plane
View from above orbital plane
View from above satellite
View from above satellite

Ground track
Ground track

The orbit data is extracted from the following two-line orbital elements,

1 25723U 99022C   15059.64619617  .00012079  00000-0  33019-3 0  9999
2 25723 048.4217 275.6346 0013294 343.2500 058.0497 15.37597808876520
Epoch (UTC): 28 February 2015 15:30:31
Eccentricity: 0.0013294
inclination: 48.4217°
perigee height: 444 km
apogee height: 462 km
right ascension of ascending node: 275.6346°
argument of perigee: 343.2500°
revolutions per day: 15.37597808
mean anomaly at epoch: 58.0497°
orbit number at epoch: 87652

The dashed part of the orbit path shows where the satellite is in the earth's shadow,  

DLR